Find Starlink 38084

NORAD ID: 69995 Int'l Des: 2026-159 Owner: SPXS Country: US Constellation: starlink operational
LEOCIRCULARRETROGRADE

現在のビュー

3D地球を読み込み中...

About Starlink 38084

Starlink 38084 (NORAD 69995) is a starlink constellation satellite (v2 mini) launched Jul 11, 2026 by SPXS of US. It operates in LEO, CIRCULAR, RETROGRADE orbit with a mass of 575.00 kg.

次回通過

Passes for default location (London). Set your location on the main map for personalized predictions.

高度履歴

Loading altitude history...

軌道要素

1 69995U 26159W 26237.51298416 .00169812 00000-0 11141-2 0 9994
2 69995 97.2835 78.3146 0001648 101.9508 258.1942 15.75246695 8375
Epoch: Aug 25, 2026 • Age: 19 hours

現在のステータス

高度 369.7 km
遠地点 / 近地点 N/A
速度 7.69 km/s
衛星直下点 -67.63°S, 151.74°E
打ち上げ日 Jul 11, 2026
運用期間 0.1 years
タイプ internet

技術仕様

分類 Payload
質量 575.00 kg
乾燥質量 530.00 kg
総質量 575.00 kg
長さ 0.30 m
直径 4.10 m
スパン 29.00 m
形状 Box + pan
製造者 SPXS
バスタイプ Starlink V2MO
フェーズステータス In Orbit
所有者/国 SPXS/US

Most Searched